Location: Narrabri
(30.3170°S, 149.7830°E)
Time: 02:02:38
(UTC+11:00)

N. Korean satellite - Pass Details

Date: 09 October 2017
Orbit: 459 x 517 km, 97.2° (Epoch: 17 October)

Event Time Altitude Azimuth Distance (km) Brightness Sun altitude
Rises 20:16:42 0° 182° (S) 2,669 10.6 -15.5°
Reaches altitude 10° 20:18:59 10° 192° (SSW) 1,772 9.8 -16.0°
Maximum altitude 20:22:22 30° 254° (WSW) 949 8.8 -16.7°
Drops below altitude 10° 20:25:41 10° 316° (NW) 1,741 9.7 -17.3°
Sets 20:27:55 0° 327° (NNW) 2,613 10.5 -17.8°
